Starlink 36215

operational
NORAD ID: 67100 Int'l Des: 2025-298 Owner: SPXS Country: US Constellation: starlink
LEOCIRCULAR

About Starlink 36215

Description loading...

Live Position

Loading 3D Globe...

Upcoming Passes

Altitude History

Altitude vs Time

uPlot chart will show altitude changes over time

Two-Line Element Set

1 67100U 25298AB 26037.57459560 .00091908 00000-0 20728-2 0 9997
2 67100 69.9987 96.2277 0002475 271.4233 88.6665 15.42777537 8473
Epoch: Feb 6, 2026 • Age: 12 hours

Current Status

Altitude 449.2 km
Velocity 7.64 km/s
Sub-Earth Point -34.66°S, 88.04°W
Launch Date Dec 14, 2025
Age 0.1 years
Type internet

Technical Details

Classification Payload
Mass 575.00 kg
Dry Mass 530.00 kg
Total Mass 575.00 kg
Length 0.30 m
Diameter 4.10 m
Span 29.00 m
Shape Box + pan
Manufacturer SPXS
Bus Type Starlink V2MO
Phase Status In Orbit
Owner/State SPXS/US

Large Constellations

Loading constellations...